Decatur, AL

2:38 AM CDT on October 19, 2017 (GMT -0500)
Pryor Regional

Weather History for KDCU - July, 2013

Change the Weather History Date:

Thursday, July 11, 2013

  Actual Average Record
Temperature  
Mean Temperature 80 °F -  
Max Temperature 89 °F 90 °F 98 °F (1988)
Min Temperature 71 °F 68 °F 52 °F (1963)
Cooling Degree Days 14    
Growing Degree Days 30 (Base 50)    
Moisture  
Dew Point 72 °F    
Average Humidity 81    
Maximum Humidity 100    
Minimum Humidity 62    
Precipitation  
Precipitation 0.00 in - - ()
Sea Level Pressure  
Sea Level Pressure 29.95 in    
Wind  
Wind Speed 3 mph (SSW)    
Max Wind Speed 9 mph    
Max Gust Speed -    
Visibility 10 miles    
Events Thunderstorm    
Averages and records for this station are not official NWS values.
T = Trace of Precipitation, MM = Missing Value Source: NWS Daily Summary

Daily Weather History Graph

Daily Weather History Graph

Search for Another Location

Airport or City:

Trip Planner

Search our weather history database for the weather conditions in past years. The results will help you decide how hot, cold, wet, or windy it might be!

Date:

Astronomy

Jul. 11, 2013 Rise Set
Actual Time 5:43 AM CDT 8:02 PM CDT
Civil Twilight 5:14 AM CDT 8:31 PM CDT
Nautical Twilight 4:39 AM CDT 9:07 PM CDT
Astronomical Twilight 4:00 AM CDT 9:45 PM CDT
Moon 8:51 AM CDT (7/11) 9:54 PM CDT (7/11)
Length of Visible Light 15h 16m
Length of Day
14h 18m
Waxing Crescent, 11% of the Moon is Illuminated
Jul 11
Waxing Crescent
Jul 15
First Quarter
Jul 22
Full
Jul 29
Last Quarter
Aug 6
New

Hourly Weather History & Observations

Time (CDT) Temp. Heat Index Dew Point Humidity Pressure Visibility Wind Dir Wind Speed Gust Speed Precip Events Conditions
12:53 AM - - - N/A% 30.01 in - North - - N/A Thunderstorm Thunderstorm
1:20 AM - - - N/A% 29.99 in - North - - N/A   Unknown
1:53 AM - - - N/A% 29.99 in - North - - N/A   Unknown
2:53 AM - - - N/A% 29.97 in - North - - N/A   Unknown
3:53 AM 71.1 °F - 70.0 °F 96% 29.94 in 10.0 mi SSW 5.8 mph - N/A   Unknown
4:53 AM 72.0 °F - 70.0 °F 93% 29.94 in 10.0 mi Calm Calm - N/A   Clear
5:53 AM 71.1 °F - 70.0 °F 96% 29.94 in 9.0 mi Calm Calm - N/A   Clear
6:53 AM 72.0 °F - 70.0 °F 93% 29.95 in 10.0 mi Calm Calm - N/A   Clear
7:34 AM 71.6 °F - 71.6 °F 100% 29.98 in 10.0 mi SE 4.6 mph - N/A   Partly Cloudy
7:53 AM 73.0 °F - 71.1 °F 93% 29.97 in 10.0 mi SE 4.6 mph - N/A   Partly Cloudy
8:16 AM 73.4 °F - 71.6 °F 94% 29.99 in 10.0 mi SE 4.6 mph - N/A   Mostly Cloudy
8:53 AM 75.0 °F - 72.0 °F 90% 29.97 in 10.0 mi SSE 4.6 mph - N/A   Mostly Cloudy
9:50 AM 78.8 °F - 73.4 °F 83% 29.99 in 10.0 mi South 3.5 mph - N/A   Mostly Cloudy
9:53 AM 78.1 °F - 72.0 °F 81% 29.97 in 10.0 mi Variable 3.5 mph - N/A   Mostly Cloudy
10:43 AM 80.6 °F 85.4 °F 73.4 °F 79% 29.99 in 10.0 mi Calm Calm - N/A   Unknown
10:53 AM 81.0 °F 85.8 °F 73.0 °F 77% 29.96 in 10.0 mi Variable 3.5 mph - N/A   Unknown
11:13 AM 80.6 °F 85.4 °F 73.4 °F 79% 29.99 in 10.0 mi South 5.8 mph - N/A   Overcast
11:34 AM 80.6 °F 85.4 °F 73.4 °F 79% 29.98 in 10.0 mi Calm Calm - N/A   Overcast
11:53 AM 81.0 °F 85.8 °F 73.0 °F 77% 29.98 in 9.0 mi Calm Calm - N/A   Overcast
12:53 PM 84.0 °F 91.9 °F 75.0 °F 74% 29.97 in 9.0 mi South 4.6 mph - N/A   Mostly Cloudy
1:53 PM 84.9 °F 91.4 °F 73.0 °F 67% 29.95 in 9.0 mi Calm Calm - N/A   Mostly Cloudy
2:13 PM 87.8 °F 95.6 °F 73.4 °F 62% 29.94 in 10.0 mi SE 6.9 mph - N/A   Scattered Clouds
2:37 PM 84.2 °F 90.9 °F 73.4 °F 70% 29.94 in 10.0 mi Calm Calm - N/A   Mostly Cloudy
2:53 PM 84.0 °F 91.2 °F 73.9 °F 72% 29.94 in 10.0 mi South 5.8 mph - N/A   Mostly Cloudy
3:53 PM 88.0 °F 96.5 °F 73.9 °F 63% 29.90 in 10.0 mi Variable 4.6 mph - N/A   Clear
4:53 PM 84.9 °F 91.4 °F 73.0 °F 67% 29.89 in 10.0 mi SW 6.9 mph - N/A   Scattered Clouds
5:53 PM 84.9 °F 92.1 °F 73.9 °F 69% 29.87 in 10.0 mi SW 6.9 mph - N/A   Clear
6:53 PM 80.1 °F 84.2 °F 73.0 °F 79% 29.90 in 10.0 mi NW 9.2 mph - N/A   Clear
7:53 PM 78.1 °F - 71.1 °F 79% 29.89 in 10.0 mi NW 6.9 mph - 0.00 in   Clear
8:53 PM 75.9 °F - 70.0 °F 82% 29.90 in 10.0 mi NNW 3.5 mph - N/A   Clear
9:53 PM 75.0 °F - 70.0 °F 84% 29.92 in 10.0 mi NNW 4.6 mph - N/A   Overcast
10:53 PM 73.9 °F - 70.0 °F 87% 29.93 in 10.0 mi North 3.5 mph - N/A   Overcast
11:53 PM 73.9 °F - 70.0 °F 87% 29.93 in 10.0 mi NNW 3.5 mph - N/A   Overcast